KG4OOZ Weather Reports


time (UTC)temp
C
wind
direction
speed
KPH
gust
KPH
rain 1hr
cm
rain 24hr
cm
rain mn
cm
humidity
%
barometer
mb
20260504041803 11 175 3.2 4.8 0.00 0.00 0.00 73 1016.6
20260504040903 11 182 3.2 4.8 0.00 0.00 0.00 72 1016.8
20260504040004 11 187 3.2 6.4 0.00 0.00 0.00 72 1016.8
20260504035403 11 183 3.2 4.8 0.00 0.00 0.00 73 1016.9
20260504034503 11 193 3.2 4.8 0.00 0.00 0.00 71 1017.0
20260504033603 11 198 0.0 3.2 0.00 0.00 0.00 70 1017.1
20260504032703 11 202 0.0 1.6 0.00 0.00 0.00 69 1017.2
20260504031803 12 181 0.0 1.6 0.00 0.00 0.00 68 1017.4
20260504030903 12 190 1.6 4.8 0.00 0.00 0.00 67 1017.5
20260504030003 12 183 3.2 4.8 0.00 0.00 0.00 66 1017.5
20260504025403 12 188 1.6 4.8 0.00 0.00 0.00 65 1017.5
20260504024503 12 201 0.0 4.8 0.00 0.00 0.00 65 1017.6
20260504023603 12 0 0.0 0.0 0.00 0.00 0.00 66 1017.6
20260504022703 12 0 0.0 0.0 0.00 0.00 0.00 65 1017.7
20260504021803 12 0 0.0 0.0 0.00 0.00 0.00 64 1017.6
20260504020903 12 0 0.0 0.0 0.00 0.00 0.00 64 1017.5
20260504020003 12 0 0.0 0.0 0.00 0.00 0.00 63 1017.6
20260504015403 12 0 0.0 0.0 0.00 0.00 0.00 63 1017.6
20260504014503 13 0 0.0 0.0 0.00 0.00 0.00 64 1017.4
20260504013603 13 0 0.0 0.0 0.00 0.00 0.00 60 1017.0
20260504012703 13 201 0.0 1.6 0.00 0.00 0.00 60 1016.7
20260504011803 13 0 0.0 0.0 0.00 0.00 0.00 58 1016.8
20260504010903 13 0 0.0 0.0 0.00 0.00 0.00 58 1016.8
20260504010003 14 0 0.0 0.0 0.00 0.00 0.00 57 1016.7
20260504005403 14 201 1.6 3.2 0.00 0.00 0.00 57 1016.6
20260504004503 15 201 3.2 3.2 0.00 0.00 0.00 57 1016.5
20260504003603 15 202 3.2 4.8 0.00 0.00 0.00 55 1016.5
20260504002703 16 206 3.2 8.0 0.00 0.00 0.00 53 1016.6
20260504001803 16 208 4.8 6.4 0.00 0.00 0.00 51 1016.7
20260504000903 16 208 4.8 9.7 0.00 0.00 0.00 50 1016.7
20260504000003 16 207 8.0 12.9 0.00 0.00 0.00 48 1016.7
20260503235403 17 204 8.0 12.9 0.00 0.00 0.00 48 1016.6
20260503234503 17 206 8.0 16.1 0.00 0.00 0.00 49 1016.7
20260503233603 17 201 9.7 14.5 0.00 0.00 0.00 49 1016.7
20260503232703 17 204 6.4 12.9 0.00 0.00 0.00 50 1016.9
20260503231803 17 204 8.0 12.9 0.00 0.00 0.00 48 1017.0
20260503230903 17 209 8.0 14.5 0.00 0.00 0.00 46 1017.1
20260503230003 18 217 8.0 19.3 0.00 0.00 0.00 46 1017.2
20260503225403 18 211 8.0 19.3 0.00 0.00 0.00 45 1017.5
20260503224503 18 209 8.0 16.1 0.00 0.00 0.00 47 1017.5
20260503223603 18 208 9.7 19.3 0.00 0.00 0.00 45 1017.7
20260503222703 18 204 9.7 16.1 0.00 0.00 0.00 44 1018.0
20260503221803 18 203 8.0 14.5 0.00 0.00 0.00 45 1018.0
20260503220903 18 208 8.0 19.3 0.00 0.00 0.00 47 1018.1
20260503220003 18 207 6.4 12.9 0.00 0.00 0.00 45 1018.2
20260503215403 18 213 6.4 12.9 0.00 0.00 0.00 43 1018.4
20260503214503 19 214 9.7 22.5 0.00 0.00 0.00 43 1018.6
20260503213603 20 211 11.3 22.5 0.00 0.00 0.00 42 1018.6
20260503212703 20 205 9.7 20.9 0.00 0.00 0.00 41 1018.7
20260503211803 20 211 9.7 27.4 0.00 0.00 0.00 40 1018.8
20260503210903 20 214 8.0 24.1 0.00 0.00 0.00 42 1019.0
20260503210003 20 226 9.7 25.7 0.00 0.00 0.00 43 1019.2
20260503205403 20 216 12.9 25.7 0.00 0.00 0.00 41 1019.3
20260503204503 20 217 12.9 24.1 0.00 0.00 0.00 41 1019.3
20260503203603 20 201 12.9 27.4 0.00 0.00 0.00 43 1019.4
20260503202703 20 209 9.7 22.5 0.00 0.00 0.00 42 1019.7
20260503201803 20 213 11.3 19.3 0.00 0.00 0.00 40 1020.0
20260503200903 20 214 9.7 25.7 0.00 0.00 0.00 39 1020.0
20260503200003 20 230 9.7 22.5 0.00 0.00 0.00 43 1020.2
20260503195403 20 226 8.0 22.5 0.00 0.00 0.00 44 1020.4
20260503194503 20 201 9.7 24.1 0.00 0.00 0.00 41 1020.7
20260503193603 20 207 12.9 25.7 0.00 0.00 0.00 41 1021.0
20260503192703 20 200 9.7 17.7 0.00 0.00 0.00 40 1021.0
20260503191803 20 211 8.0 19.3 0.00 0.00 0.00 39 1021.3
20260503190903 20 204 8.0 16.1 0.00 0.00 0.00 40 1021.4
20260503190004 20 213 9.7 17.7 0.00 0.00 0.00 39 1021.5
20260503185403 19 227 9.7 27.4 0.00 0.00 0.00 40 1021.8
20260503184503 18 221 8.0 27.4 0.00 0.00 0.00 40 1021.8
20260503183603 19 205 6.4 14.5 0.00 0.00 0.00 43 1021.8
20260503182703 18 223 6.4 14.5 0.00 0.00 0.00 42 1022.0
20260503181803 18 198 9.7 24.1 0.00 0.00 0.00 41 1022.0
20260503180903 18 234 8.0 22.5 0.00 0.00 0.00 40 1022.2
20260503180003 18 233 9.7 19.3 0.00 0.00 0.00 46 1022.2
20260503175403 18 214 8.0 17.7 0.00 0.00 0.00 42 1022.4
20260503174503 18 207 6.4 14.5 0.00 0.00 0.00 44 1022.5
20260503173603 18 215 6.4 16.1 0.00 0.00 0.00 40 1022.7
20260503172703 18 209 4.8 14.5 0.00 0.00 0.00 42 1022.9
20260503171803 17 188 3.2 14.5 0.00 0.00 0.00 46 1022.9
20260503170903 17 161 4.8 14.5 0.00 0.00 0.00 46 1023.1
20260503150903 16 211 6.4 14.5 0.00 0.00 0.00 49 1024.3
20260503130903 8 177 1.6 6.4 0.00 0.00 0.00 87 1024.1
20260503080903 2 0 0.0 0.0 0.00 0.00 0.00 93 1023.0
20260503072703 3 0 0.0 0.0 0.00 0.00 0.00 93 1022.7
20260503071803 3 0 0.0 0.0 0.00 0.00 0.00 93 1022.7
20260503070903 3 0 0.0 0.0 0.00 0.00 0.00 92 1022.7
20260503054503 4 0 0.0 0.0 0.00 0.00 0.00 88 1022.7
20260503053603 4 0 0.0 0.0 0.00 0.00 0.00 87 1022.7
20260503052703 5 0 0.0 0.0 0.00 0.00 0.00 87 1022.8
20260503051803 5 0 0.0 0.0 0.00 0.00 0.00 86 1022.8
20260503050903 5 0 0.0 0.0 0.00 0.00 0.00 84 1022.8
20260503050005 5 355 0.0 1.6 0.00 0.00 0.00 85 1022.7
20260503045403 5 355 0.0 1.6 0.00 0.00 0.00 87 1022.6
20260503044503 5 0 0.0 0.0 0.00 0.00 0.00 87 1022.6
20260503043603 5 0 0.0 0.0 0.00 0.00 0.00 87 1022.5
20260503042703 5 19 0.0 3.2 0.00 0.00 0.00 86 1022.5